When you browse on this site, cookies collect data to enhance your experience and personalize the content and advertising you see.
Visit our Privacy Policy to learn more. By continuing to use the site, you agree to this use of cookies and data.
  • In Italy
  • List of Countries
  • For 7 days
  • Water Temperature
  • Satellite Maps
  • Weather Map
  • Weather Widgets
  • user-avatar
    Login

    Hourly Weather Hrazdan

    Today, 19 January, Saturday

    Time Temperature Precipitation Wind Pressure Humidity
    00:00 -11°C° 0 mm 1 mps 608 mmHg 74%
    01:00 -13°C° 0 mm 2 mps 608 mmHg 74%
    02:00 -13°C° 0 mm 2 mps 608 mmHg 73%
    03:00 -13°C° 0 mm 2 mps 608 mmHg 73%
    04:00 -13°C° 0 mm 2 mps 608 mmHg 73%
    05:00 -13°C° 0 mm 2 mps 608 mmHg 72%
    06:00 -13°C° 0 mm 2 mps 608 mmHg 72%
    07:00 -12°C° 0 mm 2 mps 608 mmHg 72%
    08:00 -10°C° 0 mm 2 mps 609 mmHg 71%
    09:00 -9°C° 0 mm 2 mps 609 mmHg 71%
    10:00 -8°C° 0 mm 2 mps 609 mmHg 71%
    11:00 -6°C° 0 mm 2 mps 609 mmHg 70%
    12:00 -5°C° 0 mm 2 mps 610 mmHg 70%
    13:00 -5°C° 0 mm 2 mps 609 mmHg 70%
    14:00 -5°C° 0 mm 2 mps 609 mmHg 71%
    15:00 -5°C° 0 mm 2 mps 609 mmHg 71%
    16:00 -7°C° 0 mm 2 mps 608 mmHg 68%
    17:00 -9°C° 0 mm 2 mps 608 mmHg 64%
    18:00 -12°C° 0 mm 2 mps 608 mmHg 61%
    19:00 -12°C° 0 mm 2 mps 608 mmHg 59%
    20:00 -12°C° 0 mm 2 mps 608 mmHg 57%
    21:00 -12°C° 0 mm 2 mps 608 mmHg 55%
    22:00 -12°C° 0 mm 2 mps 608 mmHg 56%
    23:00 -12°C° 0 mm 2 mps 609 mmHg 58%

    Tomorrow, 20 January, Sunday

    Time Temperature Precipitation Wind Pressure Humidity
    00:00 -12°C° 0 mm 2 mps 609 mmHg 59%
    01:00 -12°C° 0 mm 2 mps 609 mmHg 60%
    02:00 -12°C° 0 mm 2 mps 609 mmHg 60%
    03:00 -12°C° 0 mm 2 mps 609 mmHg 61%
    04:00 -12°C° 0 mm 2 mps 609 mmHg 61%
    05:00 -13°C° 0 mm 2 mps 609 mmHg 61%
    06:00 -13°C° 0 mm 2 mps 609 mmHg 60%
    07:00 -12°C° 0 mm 2 mps 610 mmHg 62%
    08:00 -10°C° 0 mm 2 mps 610 mmHg 63%
    09:00 -9°C° 0 mm 2 mps 611 mmHg 65%
    10:00 -7°C° 0 mm 2 mps 611 mmHg 64%
    11:00 -6°C° 0 mm 2 mps 611 mmHg 64%
    12:00 -5°C° 0 mm 2 mps 612 mmHg 63%
    13:00 -5°C° 0 mm 2 mps 611 mmHg 65%
    14:00 -5°C° 0 mm 2 mps 611 mmHg 66%
    15:00 -2°C° 0 mm 1 mps 611 mmHg 67%
    16:00 -4°C° 0 mm 1 mps 611 mmHg 65%
    17:00 -7°C° 0 mm 1 mps 610 mmHg 63%
    18:00 -8°C° 0 mm 1 mps 610 mmHg 61%
    19:00 -9°C° 0 mm 1 mps 610 mmHg 59%
    20:00 -9°C° 0 mm 1 mps 610 mmHg 56%
    21:00 -10°C° 0 mm 1 mps 610 mmHg 53%
    22:00 -12°C° 0 mm 2 mps 610 mmHg 53%
    23:00 -12°C° 0 mm 2 mps 610 mmHg 52%

    Day after tomorrow, 21 January, Monday

    Time Temperature Precipitation Wind Pressure Humidity
    00:00 -12°C° 0 mm 2 mps 610 mmHg 51%
    01:00 -12°C° 0 mm 2 mps 610 mmHg 52%
    02:00 -13°C° 0 mm 2 mps 610 mmHg 53%
    03:00 -13°C° 0 mm 2 mps 610 mmHg 54%
    04:00 -13°C° 0 mm 2 mps 610 mmHg 56%
    05:00 -13°C° 0 mm 2 mps 610 mmHg 57%
    06:00 -13°C° 0 mm 2 mps 610 mmHg 59%
    07:00 -12°C° 0 mm 2 mps 610 mmHg 61%
    08:00 -10°C° 0 mm 2 mps 610 mmHg 63%
    09:00 -9°C° 0 mm 2 mps 611 mmHg 65%
    10:00 -8°C° 0 mm 2 mps 611 mmHg 64%
    11:00 -6°C° 0 mm 2 mps 611 mmHg 64%
    12:00 -5°C° 0 mm 2 mps 611 mmHg 63%
    13:00 -5°C° 0 mm 2 mps 610 mmHg 64%
    14:00 -5°C° 0 mm 2 mps 610 mmHg 65%
    15:00 -5°C° 0 mm 2 mps 609 mmHg 65%
    16:00 -7°C° 0 mm 2 mps 609 mmHg 63%
    17:00 -9°C° 0 mm 2 mps 608 mmHg 60%
    18:00 -12°C° 0 mm 2 mps 608 mmHg 57%
    19:00 -12°C° 0 mm 2 mps 608 mmHg 55%
    20:00 -12°C° 0 mm 2 mps 608 mmHg 54%
    21:00 -12°C° 0 mm 2 mps 608 mmHg 52%
    22:00 -12°C° 0 mm 2 mps 608 mmHg 54%
    23:00 -12°C° 0 mm 2 mps 608 mmHg 56%

    22 January, Tuesday

    Time Temperature Precipitation Wind Pressure Humidity
    00:00 -12°C° 0 mm 2 mps 608 mmHg 57%
    01:00 -12°C° 0 mm 2 mps 608 mmHg 59%
    02:00 -12°C° 0 mm 2 mps 608 mmHg 60%
    03:00 -12°C° 0 mm 2 mps 608 mmHg 62%
    04:00 -12°C° 0 mm 2 mps 608 mmHg 62%
    05:00 -13°C° 0 mm 2 mps 607 mmHg 62%
    06:00 -13°C° 0 mm 2 mps 607 mmHg 62%
    07:00 -12°C° 0 mm 2 mps 607 mmHg 63%
    08:00 -10°C° 0 mm 2 mps 608 mmHg 64%
    09:00 -9°C° 0 mm 2 mps 608 mmHg 65%
    10:00 -8°C° 0 mm 2 mps 608 mmHg 65%
    11:00 -7°C° 0 mm 3 mps 609 mmHg 66%
    12:00 -6°C° 0 mm 3 mps 609 mmHg 66%
    13:00 -6°C° 0 mm 3 mps 608 mmHg 67%
    14:00 -5°C° 0 mm 2 mps 608 mmHg 68%
    15:00 -5°C° 0 mm 2 mps 608 mmHg 69%
    16:00 -6°C° 0 mm 2 mps 607 mmHg 67%
    17:00 -8°C° 0 mm 2 mps 607 mmHg 65%
    18:00 -9°C° 0 mm 2 mps 607 mmHg 64%
    19:00 -10°C° 0 mm 2 mps 607 mmHg 62%
    20:00 -10°C° 0 mm 2 mps 607 mmHg 61%
    21:00 -10°C° 0 mm 2 mps 607 mmHg 60%
    22:00 -10°C° 0 mm 2 mps 607 mmHg 61%
    23:00 -12°C° 0 mm 2 mps 607 mmHg 62%

    23 January, Wednesday

    Time Temperature Precipitation Wind Pressure Humidity
    00:00 -12°C° 0 mm 2 mps 607 mmHg 63%
    01:00 -12°C° 0 mm 2 mps 607 mmHg 64%
    02:00 -12°C° 0 mm 2 mps 607 mmHg 65%
    03:00 -12°C° 0 mm 2 mps 606 mmHg 66%
    04:00 -12°C° 0 mm 2 mps 606 mmHg 67%
    05:00 -12°C° 0 mm 2 mps 606 mmHg 67%
    06:00 -12°C° 0 mm 2 mps 606 mmHg 68%
    07:00 -12°C° 0 mm 2 mps 607 mmHg 69%
    08:00 -10°C° 0 mm 2 mps 607 mmHg 69%
    09:00 -10°C° 0 mm 3 mps 608 mmHg 70%
    10:00 -9°C° 0 mm 3 mps 608 mmHg 70%
    11:00 -7°C° 0 mm 3 mps 608 mmHg 69%
    12:00 -6°C° 0 mm 3 mps 608 mmHg 68%
    13:00 -6°C° 0 mm 3 mps 608 mmHg 68%
    14:00 -6°C° 0 mm 3 mps 608 mmHg 69%
    15:00 -6°C° 0 mm 3 mps 607 mmHg 69%
    16:00 -7°C° 0 mm 3 mps 607 mmHg 68%
    17:00 -9°C° 0 mm 3 mps 607 mmHg 67%
    18:00 -9°C° 0 mm 2 mps 607 mmHg 67%
    19:00 -10°C° 0 mm 3 mps 607 mmHg 67%
    20:00 -10°C° 0 mm 3 mps 608 mmHg 68%
    21:00 -9°C° 0 mm 3 mps 608 mmHg 69%
    22:00 -10°C° 0 mm 3 mps 608 mmHg 70%
    23:00 -10°C° 0 mm 3 mps 608 mmHg 72%

    24 January, Thursday

    Time Temperature Precipitation Wind Pressure Humidity
    00:00 -12°C° 0 mm 3 mps 608 mmHg 73%
    01:00 -12°C° 0 mm 3 mps 608 mmHg 74%
    02:00 -12°C° 0 mm 3 mps 608 mmHg 75%
    03:00 -12°C° 0 mm 3 mps 608 mmHg 76%
    04:00 -12°C° 0 mm 3 mps 607 mmHg 77%
    05:00 -12°C° 0 mm 3 mps 607 mmHg 78%
    06:00 -12°C° 0 mm 3 mps 607 mmHg 78%
    07:00 -10°C° 0 mm 3 mps 608 mmHg 78%
    08:00 -10°C° 0 mm 3 mps 608 mmHg 78%
    09:00 -9°C° 0 mm 3 mps 609 mmHg 77%
    10:00 -7°C° 0 mm 3 mps 609 mmHg 77%
    11:00 -6°C° 0 mm 3 mps 609 mmHg 76%
    12:00 -5°C° 0 mm 3 mps 609 mmHg 75%
    13:00 -5°C° 0 mm 3 mps 609 mmHg 75%
    14:00 -4°C° 0 mm 3 mps 609 mmHg 74%
    15:00 -4°C° 0 mm 3 mps 608 mmHg 74%
    16:00 -5°C° 0 mm 2 mps 608 mmHg 73%
    17:00 -6°C° 0 mm 2 mps 608 mmHg 73%
    18:00 -8°C° 0 mm 2 mps 608 mmHg 72%
    19:00 -8°C° 0 mm 2 mps 608 mmHg 71%
    20:00 -8°C° 0 mm 2 mps 608 mmHg 70%
    21:00 -8°C° 0 mm 2 mps 608 mmHg 70%
    22:00 -8°C° 0 mm 2 mps 608 mmHg 71%
    23:00 -8°C° 0 mm 2 mps 608 mmHg 72%
    Show more